Tracking 20475 objects as of 27-Feb-2020
HD Live streaming from Space Station
objects crossing your sky now

HIMAWARI 3 AKM

Track HIMAWARI 3 AKM now!


NORAD ID: 22266
Int'l Code: 1984-080E
Perigee: 35,359.2 km
Apogee: 36,524.8 km
Inclination: 13.4 °
Period: 1,443.7 minutes
Semi major axis: 42312 km
RCS: 0.4466 m2 (medium)
Launch date: August 2, 1984
Source: Japan (JPN)
Launch site: TANEGASHIMA SPACE CENTER (TNSTA)

Note: This is a ROCKET BODY
aabbcc
Your satellite tracking list
Your tracking list is empty




NASA's NSSDC Master Catalog

Two Line Element Set (TLE):
1 22266U 84080E   20057.45971701 +.00000040 +00000-0 +00000-0 0  9990
2 22266 013.4214 335.0063 0137744 048.5356 154.0690 00.99745223094517
Source of the keplerian elements: AFSPC